Regional Weather Roundup
Issued by NWS Upton, NY

Current Version | Previous Version | Graphics & Text | Print | Product List | Glossary On
Versions: 1 2 3 4 5 6 7 8 9 10 11 12 13 14 15 16 17 18 19 20 21 22 23 24 25 26 27
000
ASUS41 KOKX 171505
RWROKX

REGIONAL WEATHER ROUNDUP
NATIONAL WEATHER SERVICE NEW YORK NY
1100 AM EDT THU APR 17 2014

NOTE: "FAIR" INDICATES FEW OR NO CLOUDS BELOW 12,000 FEET WITH NO
SIGNIFICANT WEATHER AND/OR OBSTRUCTIONS TO VISIBILITY.

NYZ071-072-176-178-NJZ106-104-171600-
NEW YORK CITY METRO AREA


CITY           SKY/WX    TMP DP  RH WIND       PRES   REMARKS
CENTRAL PARK   SUNNY     42  24  49 E13       30.76R
LAGUARDIA APRT MOSUNNY   41  25  53 NE17      30.74S
KENNEDY INTL   MOSUNNY   45  22  40 E7G16     30.74S
NEWARK/LIBERTY MOSUNNY   44  22  41 VRB6      30.74R
TETERBORO      SUNNY     43  25  49 E12       30.74R
$$

NYZ177-179-078>081-171600-
LONG ISLAND NEW YORK

CITY           SKY/WX    TMP DP  RH WIND       PRES   REMARKS
FARMINGDALE    SUNNY     43  24  47 NE8       30.73S
ISLIP          MOSUNNY   45  23  42 NE14      30.71S
SHIRLEY        MOSUNNY   43  26  51 VRB7      30.74S
WESTHAMPTON    SUNNY     45  25  45 NE15G23   30.75R
MONTAUK POINT    N/A     42  24  49 NE14G22   30.76R
$$

NYZ052-065-067-171600-
HUDSON VALLEY

CITY           SKY/WX    TMP DP  RH WIND       PRES   REMARKS
WHITE PLAINS   SUNNY     41  22  46 SE14G23   30.72S
NEWBURGH       SUNNY     41  19  42 SE6       30.73S
MONTGOMERY     SUNNY     42  19  39 VRB7      30.72S
POUGHKEEPSIE   SUNNY     43  17  35 N7        30.73F
ALBANY         PTSUNNY   39  18  42 SW3       30.76F
$$

NJZ001-105-106-008-010-013-015-019>022-104-171600-
NEW JERSEY

CITY           SKY/WX    TMP DP  RH WIND       PRES   REMARKS
NEWARK/LIBERTY MOSUNNY   44  22  41 VRB6      30.74R
TETERBORO      SUNNY     43  25  49 E12       30.74R
CALDWELL       SUNNY     42  23  46 SE14G20   30.74R
MORRISTOWN     MOSUNNY   43  21  42 E14G21    30.74R
SOMERVILLE     SUNNY     46  22  38 SE7       30.70S
LINDEN         FAIR      46  21  37 E10       30.75S
SUSSEX           N/A     44  19  36 E8        30.70S
ANDOVER          N/A     41  16  36 VRB3      30.70S
TRENTON        SUNNY     44  20  38 E9G17     30.71R
MILLVILLE      SUNNY     48  30  49 SE15G21   30.69R
ATLANTIC CITY  CLOUDY    45  30  55 E16G26    30.70R
WRIGHTSTOWN    MOSUNNY   45  29  53 NE15G23   30.68S
TOMS RIVER     CLOUDY    43  28  56 E12       30.72S
BELMAR         CLOUDY    41  27  56 E18G24    30.72R
$$

PAZ047>061-062-071-171600-
EASTERN PENNSYLVANIA

CITY           SKY/WX    TMP DP  RH WIND       PRES   REMARKS
PHILADELPHIA   MOSUNNY   48  28  46 E9        30.71S
ALLENTOWN      SUNNY     45  21  38 E12       30.70R
SCRANTON       SUNNY     42  17  36 VRB6      30.64F
$$

CTZ002-004>006-009-010-012-RIZ004-006-007-MAZ004-011-015-171600-
SOUTHERN NEW ENGLAND
 IN CT

CITY           SKY/WX    TMP DP  RH WIND       PRES   REMARKS
BRADLEY INTL   MOSUNNY   40  17  39 NE10      30.77R WCI  33
HARTFORD       SUNNY     41  20  43 VRB6      30.77S
DANBURY        SUNNY     39  20  46 E9        30.74S WCI  33
WTRBRY/OXFORD  MOSUNNY   36  19  51 MISG      30.74S
BRIDGEPORT     SUNNY     41  24  51 E13       30.75S
MERIDEN        SUNNY     42  21  43 NE12      30.76S
NEW HAVEN      MOSUNNY   43  21  41 NE8       30.75S
CHESTER        FAIR      39  21  48 NE9       30.74S WCI  33
GROTON         SUNNY     44  23  43 N13       30.74F
WILLIMANTIC    SUNNY     42  22  44 N12       30.76S

 IN RI

CITY           SKY/WX    TMP DP  RH WIND       PRES   REMARKS
PROVIDENCE     MOSUNNY   42  21  43 NE14G23   30.77S
BLOCK ISLAND   SUNNY     39  27  60 NE16G25   30.74S WCI  30
WESTERLY       SUNNY     42  22  44 NE12G21   30.75S

 IN MA

CITY           SKY/WX    TMP DP  RH WIND       PRES   REMARKS
BOSTON         MOSUNNY   38  23  55 NE18      30.83R WCI  28
WORCESTER      SUNNY     35  18  49 NE9G17    30.74S WCI  28
WESTFIELD      SUNNY     41  19  41 E9        30.77S
PROVINCETOWN   CLOUDY    39  27  60 MISG      30.80R
NANTUCKET      CLOUDY    40  26  57 NE23G31   30.73R WCI  30
$$

ANZ330-335-338-340-345-350-353-355-171600-
COASTAL MARINE OBSERVATIONS


STATION/POSITION TIME  SKY/WX   TEMP    WIND        PRES    VSBY  WAVE
                                AIR SEA DIR/SP/G                  HT/PER
                 (UTC)          (F)     (DEG/KT/KT) (MB)    (MI)  (FT/S)
NY HARB ENTRANCE 1500            39 43   70/ 17/ 23 1040.2
4S FIRE IS       1400               43                N/A           6/ 6
23SW MTP         1500            37 42   60/ 21/ 25 1040.0          8/ 7
HUDSON CANYON    1400            41 45   60/ 21/ 27 1037.6          9/ 8
EXECUTION ROCKS  1500            38 42   60/ 17/ 23   N/A
WESTERN LI SOUND 1500            37      80/ 16/ 19   N/A           3/ 4
CENTRAL LI SOUND 1400            36 41   90/ 14/ 17   N/A           3/ 4
EASTERN LI SOUND NOT AVBL
ROBBINS REEF     1500            40      30/ 11/ 14   N/A
$$


>>>>>>>>>>>>>>>>>>>>>>>>>>>> KEY <<<<<<<<<<<<<<<<<<<<<<<<<<<
>                                                          <
>     SKY/WX - SKY CONDITION/PRESENT WEATHER               <
>     TMP    - TEMPERATURE IN FAHRENHEIT                   <
>     DP     - DEWPOINT IN FAHRENHEIT                      <
>     RH     - RELATIVE HUMIDITY IN PERCENT                <
>     WIND   - DIRECTION AND SPEED IN MPH                  <
>     PRES   - MEAN SEA LEVEL PRESSURE IN INCHES OF HG     <
>     WCI    - WIND CHILL INDEX                            <
>     VSB    - VISIBILITY IN MILES                         <
>     HX     - HEAT INDEX                                  <
>     TC     - TEMPERATURE IN CELSIUS                      <
>     VRB    - VARIABLE WIND DIRECTION                     <
>                                                          <
>>>>>>>>>>>>>>>>>>>>>>>>>>>> KEY <<<<<<<<<<<<<<<<<<<<<<<<<<<





USA.gov is the U.S. government's official web portal to all federal, state and local government web resources and services.